User: anonymous   Login
Location: Nitra
(0.0000°N, 18.0833°E)
Time: 15:14:46
(UTC+02:00)
Language:

VELOX 1 - Orbit

View from above orbital plane
View from above orbital plane
View from above satellite
View from above satellite

Ground track
Ground track

The orbit data is extracted from the following two-line orbital elements,

1 40057U 14034E   24261.11321304  .00011036  00000-0  12164-2 0  9995
2 40057  98.3295 120.7608 0008154 194.8543 165.2433 14.87678980551362
Epoch (UTC): 17 September 2024 02:43:01
Eccentricity: 0.0008154
inclination: 98.3295°
perigee height: 599 km
apogee height: 611 km
right ascension of ascending node: 120.7608°
argument of perigee: 194.8543°
revolutions per day: 14.87678980
mean anomaly at epoch: 165.2433°
orbit number at epoch: 55136

The dashed part of the orbit path shows where the satellite is in the earth's shadow,  

DLR